SCP
-0 0 0 0 0 0 0 0 -0 -0 -0 -0 -0 -0 -0 -0 -0 0 0 0 0 0 0 0 0 -0 -0 0 0 -0 0 0 0 -0 -0 -0 0 0 -0 -0 -0 0 -0 -0 -0
-0 -0 0 0 0 0 0 0 -0 -0 -0 -0 -0 -0 -0 -0 0 0 0 -0 -0 0 0 0 -0 0 0 0 0 0 0 -0 -0 0 0 0 -0 0 -0 -0 -0 -0 -0 -0 -0
0 0 -0 0 0 0 0 0 0 -0 -0 -0 -0 0 0 0 0 0 0 0 0 0 0 0 0 0 0 0 0 0 0 -0 -0 0 0 -0 -0 0 -0 -0 -0 -0 -0 -0 -0
0 0 -0 -0 0 0 -0 0 0 -0 -0 0 0 0 0 0 0 0 0 0 0 0 0 0 0 0 0 0 0 0 0 0 -0 0 -0 -0 -0 0 0 -0 -0 -0 -0 -0 -0
0 -0 -0 -0 -0 -0 -0 -0 -0 -0 -0 -0 0 0 0 0 0 0 0 0 0 0 0 0 0 0 0 0 0 0 0 0 -0 -0 0 0 0 0 0 0 -0 -0 -0 -0 -0
-0 -0 -0 -0 -0 -0 -0 0 0 -0 -0 -0 -0 0 0 0 0 0 0 0 0 0 0 0 0 0 0 0 0 0 -0 0 0 -0 -0 -0 0 0 0 -0 -0 -0 -0 -0 -0
-0 -0 -0 -0 -0 -0 -0 -0 -0 -0 -0 -0 -0 0 0 0 0 0 0 0 0 0 0 -0 0 0 0 0 0 0 -0 0 0 -0 0 -0 -0 0 0 -0 -0 -0 -0 -0 -0
-0 -0 -0 -0 -0 -0 -0 0 -0 -0 0 0 -0 -0 0 0 0 -0 0 0 0 0 0 0 0 0 0 -0 0 0 0 0 -0 0 -0 -0 0 0 0 -0 -0 0 -0 -0 -0
-0 -0 -0 -0 -0 -0 0 0 0 0 0 0 0 0 -0 -0 0 0 0 0 0 0 0 0 0 0 0 0 0 0 0 0 -0 -0 0 0 0 0 0 0 0 0 0 -0 -0
-0 -0 -0 -0 -0 -0 0 0 0 -0 0 0 0 -0 -0 -0 -0 -0 -0 0 0 0 0 0 0 0 0 0 0 0 0 0 0 0 0 0 0 0 0 0 0 0 0 -0 -0
-0 -0 -0 -0 -0 -0 -0 0 0 0 0 0 0 0 0 -0 -0 -0 0 0 0 0 0 0 0 0 0 0 -0 0 0 0 0 -0 0 0 0 0 0 0 -0 -0 0 -0 -0
-0 -0 -0 -0 -0 -0 -0 0 0 0 -0 0 0 0 -0 -0 0 0 0 0 0 0 0 0 0 0 0 0 0 0 0 0 0 -0 -0 0 0 0 0 0 -0 0 0 -0 0
-0 -0 -0 -0 -0 -0 0 0 0 0 0 0 0 -0 -0 -0 -0 -0 0 0 0 0 0 0 0 0 0 0 0 0 0 0 0 0 0 -0 0 0 0 0 0 0 0 0 -0
-0 -0 0 -0 -0 -0 0 0 0 0 -0 -0 0 0 0 -0 -0 0 0 -0 0 0 0 0 0 0 0 0 0 0 0 0 -0 -0 -0 0 -0 0 0 0 0 0 0 0 -0
-0 -0 0 -0 -0 -0 0 0 0 0 -0 0 0 0 0 -0 -0 -0 0 0 0 0 0 0 0 0 0 0 0 0 0 0 -0 0 0 -0 -0 0 0 0 -0 -0 0 0 0
0 0 0 -0 -0 0 -0 -0 -0 -0 -0 0 0 0 0 -0 -0 0 -0 0 0 0 0 0 0 0 0 0 0 0 0 0 0 0 0 -0 -0 0 0 0 -0 0 0 0 0
0 0 -0 -0 -0 -0 0 -0 0 0 0 -0 0 0 0 0 0 0 -0 0 0 0 0 0 0 0 0 0 0 0 0 0 0 0 -0 -0 -0 0 0 -0 -0 -0 0 0 0
0 0 -0 0 0 -0 -0 0 0 -0 0 0 -0 -0 -0 -0 0 0 0 -0 0 0 0 0 0 0 0 0 0 -0 -0 -0 -0 0 -0 0 0 0 -0 -0 -0 -0 0 0 0
-0 -0 -0 0 0 0 0 -0 -0 -0 -0 0 -0 -0 -0 0 -0 -0 0 0 0 0 0 0 0 0 0 0 0 0 0 0 0 0 -0 -0 0 0 0 0 -0 0 -0 0 0
-0 -0 -0 0 -0 0 0 -0 -0 0 -0 -0 0 0 -0 0 0 0 0 0 0 0 0 0 0 0 0 0 0 0 0 0 0 0 -0 -0 -0 -0 0 0 -0 0 0 0 0
-0 -0 -0 0 0 0 0 0 0 0 -0 0 0 -0 0 0 0 0 0 0 0 0 0 0 0 0 0 0 0 0 0 0 0 0 -0 -0 -0 0 -0 -0 0 0 0 0 0
-0 -0 -0 0 0 0 0 0 0 0 -0 -0 0 0 0 0 0 -0 0 0 0 -0 0 0 0 0 0 0 0 0 0 0 0 0 0 -0 -0 -0 -0 -0 -0 0 0 0 0
-0 -0 -0 -0 0 0 0 0 0 0 0 0 0 0 0 0 0 0 -0 0 0 0 0 0 0 0 0 0 0 0 0 0 0 0 0 0 -0 0 -0 -0 -0 0 0 0 0
-0 0 -0 -0 0 0 0 0 0 0 0 0 0 0 0 0 0 0 0 0 0 0 0 0 0 0 0 0 0 0 0 0 0 0 0 0 0 0 -0 0 0 -0 0 0 0
-0 0 0 -0 0 -0 0 -0 0 0 0 0 0 0 0 0 0 0 0 0 0 0 0 0 0 0 0 0 0 0 0 0 0 0 0 0 0 -0 0 0 0 0 0 0 0
-0 0 0 0 0 0 0 0 0 0 0 0 0 0 0 0 0 0 0 0 0 0 0 0 0 0 0 0 0 0 0 0 0 0 1 0 0 0 0 0 0 0 0 0 0
0 0 -0 -0 0 0 0 0 0 0 0 0 0 0 0 0 0 0 0 0 0 0 0 0 0 0 0 0 0 0 0 0 0 0 0 0 0 0 0 0 0 0 0 0 0
Wind_Speed_500mb
29 28 25 23 20 18 15 13 12 11 10 10 11 12 15 19 21 28 30 16 25 11 5 13 17 22 18 21 25 11 8 10 19 23 8 9 9 23 39 67 48 11 65 69 68
29 30 29 28 26 23 20 16 14 12 12 11 12 12 13 18 23 35 12 19 26 21 18 17 22 15 10 10 9 13 8 27 20 26 13 31 33 42 45 37 44 65 58 74 78
25 26 28 28 29 29 28 24 20 17 14 13 11 11 12 14 18 8 4 20 30 24 19 24 23 13 20 18 9 10 5 11 27 42 28 11 34 28 48 25 69 79 74 85 73
22 20 23 24 26 27 26 26 25 22 19 15 12 9 10 9 4 4 6 8 25 27 23 25 25 6 9 11 20 10 13 8 21 24 23 9 28 22 19 47 74 87 89 83 76
21 19 20 23 25 25 26 27 24 20 23 20 13 9 8 9 15 7 12 4 25 26 25 31 26 11 6 2 14 9 6 21 19 14 11 14 10 20 39 41 75 80 80 78 71
21 22 20 20 20 23 25 28 27 22 20 22 14 10 8 7 6 4 11 12 22 29 29 40 16 7 19 14 11 20 29 18 17 22 15 16 10 9 36 65 74 77 69 67 60
22 22 21 19 20 21 23 26 29 24 21 19 12 10 15 19 11 1 10 14 15 24 36 45 27 13 17 7 11 18 18 12 18 17 7 21 10 21 45 58 59 65 61 62 55
22 23 23 23 21 20 23 27 32 23 18 13 10 16 11 9 14 16 13 18 13 19 28 32 18 23 16 35 9 6 6 7 4 12 2 9 6 12 34 50 46 56 61 61 64
21 24 26 25 23 19 21 27 33 22 15 12 12 16 14 6 18 20 18 23 9 15 27 23 17 16 7 10 7 6 3 7 1 2 8 8 9 4 34 27 48 50 50 74 72
20 24 27 26 22 16 19 26 24 20 14 13 14 14 11 8 12 7 26 25 15 11 16 21 14 5 7 9 11 9 8 15 9 8 2 6 3 7 23 29 47 55 40 74 69
20 23 25 24 18 11 10 20 21 8 29 23 34 28 28 15 13 9 12 18 29 9 7 10 7 11 15 14 11 9 15 20 9 7 1 6 5 8 10 23 36 53 39 66 72
21 23 23 21 14 7 12 13 11 17 24 38 38 35 25 16 1 8 15 9 15 8 5 11 9 19 14 17 15 19 19 15 12 4 8 6 10 9 5 9 9 11 53 65 67
22 24 22 17 10 9 17 21 29 36 11 33 17 23 17 16 12 17 21 11 7 5 6 13 18 21 17 19 19 5 17 25 2 6 9 7 8 9 5 9 11 15 14 62 83
22 22 20 11 7 12 18 32 41 33 9 13 4 8 19 8 7 25 24 13 1 17 12 12 32 25 16 22 10 7 11 28 30 18 7 3 5 8 23 20 9 25 18 30 72
23 20 18 7 12 12 28 25 26 9 9 10 5 10 16 11 5 22 22 23 15 10 3 18 13 8 13 20 17 11 16 15 32 12 5 11 3 9 16 26 30 29 37 24 66
25 18 12 10 12 17 26 34 21 11 5 8 12 11 8 11 5 29 18 20 12 8 9 17 20 11 14 10 27 41 31 26 5 2 5 12 8 8 14 44 30 21 37 29 69
26 19 15 13 5 21 24 27 11 4 13 17 3 7 13 6 8 15 10 4 5 8 9 17 11 10 14 28 13 27 19 5 4 4 6 11 6 11 14 11 34 37 47 49 56
23 22 22 13 7 10 18 10 5 8 11 10 16 20 13 15 5 12 11 4 8 6 2 4 16 4 5 18 23 15 11 12 10 7 3 3 8 10 6 39 73 75 64 62 59
19 23 25 3 4 2 4 8 10 2 7 14 19 12 12 12 13 11 7 7 4 5 6 4 10 10 5 8 25 11 5 17 14 5 6 5 14 19 2 11 27 44 65 72 68
21 28 18 11 10 7 8 10 7 5 5 11 8 8 16 9 9 11 14 4 8 6 14 2 7 8 12 5 8 18 12 8 3 12 8 8 1 18 21 5 14 29 52 71 75
21 17 12 11 18 6 4 11 11 5 13 4 5 6 9 6 8 6 7 7 9 13 14 6 5 14 8 5 14 1 3 6 7 9 9 9 12 24 36 22 30 44 59 69 81
12 6 8 13 9 5 5 10 15 5 23 13 14 9 4 8 6 2 4 7 18 11 6 6 6 6 14 16 18 11 16 12 9 14 4 6 10 12 15 22 29 24 41 65 73
18 14 14 16 5 7 14 11 9 5 7 6 9 5 10 6 7 4 7 14 10 11 4 8 7 8 20 15 17 12 10 6 2 7 6 8 9 6 3 15 40 23 5 37 55
8 6 12 12 15 4 9 9 5 9 6 7 4 14 8 8 7 2 9 7 14 13 25 13 4 10 9 14 8 13 22 18 5 5 5 10 6 9 17 4 19 35 4 7 31
5 7 7 8 14 10 4 4 4 8 7 10 10 11 4 6 6 4 6 11 15 17 13 8 5 8 11 8 15 24 24 31 13 9 10 7 10 8 9 10 12 26 17 18 7
6 4 10 27 24 15 4 7 10 4 7 3 8 9 10 7 9 4 2 1 8 8 8 9 3 9 6 12 15 23 38 23 18 23 13 23 15 10 13 18 16 14 23 27 14
6 12 8 11 12 10 6 9 14 18 3 5 14 7 8 5 7 10 7 2 4 4 9 5 6 7 3 8 5 14 14 19 11 20 3 8 3 11 11 22 22 23 25 17 18
Wind_Direction_500mb
10 13 12 10 14 18 13 1 348 342 325 308 307 301 281 268 262 263 255 235 208 194 156 201 205 198 220 260 252 228 62 118 185 176 218 266 128 106 132 131 135 152 142 147 153
24 30 33 32 32 31 25 15 356 342 330 318 308 307 295 275 269 260 252 225 201 188 191 182 191 189 242 260 235 191 127 187 208 192 210 175 130 124 135 141 122 127 141 150 153
30 33 34 36 40 40 36 28 14 356 341 326 315 312 304 293 294 283 217 206 204 196 176 185 204 275 253 257 244 189 203 149 187 234 219 225 139 142 159 158 148 147 156 157 160
25 26 26 29 30 28 25 21 19 11 357 344 333 313 299 283 221 64 45 210 192 198 201 202 212 229 243 212 233 125 47 71 149 202 183 111 129 137 169 161 164 159 162 163 164
17 12 13 17 16 13 11 7 360 356 2 350 336 316 295 267 243 78 355 212 189 202 204 197 208 204 244 125 62 79 71 85 83 127 148 103 61 133 144 155 164 162 162 164 164
11 9 5 2 358 356 1 5 3 354 347 348 334 317 285 286 111 74 30 13 218 208 204 203 196 187 287 252 160 155 115 113 70 53 56 109 147 101 165 157 159 163 166 164 161
6 3 359 350 345 347 350 353 355 349 348 347 337 316 277 227 94 240 286 342 324 216 210 202 205 264 327 60 56 126 102 84 24 9 77 100 289 161 147 165 162 170 166 158 169
356 358 353 349 343 333 338 340 343 339 349 351 347 330 261 98 235 229 262 270 338 197 206 203 225 272 265 122 75 44 106 116 37 6 269 150 171 146 170 173 167 161 167 169 175
346 348 348 348 342 327 330 336 337 326 323 324 311 329 296 229 243 256 246 245 287 190 195 229 279 250 198 97 51 33 350 19 219 77 320 64 153 139 186 216 160 169 154 158 164
338 342 344 346 341 324 329 340 339 314 299 324 286 317 338 280 70 118 176 214 211 197 256 260 236 158 69 91 193 154 153 229 210 169 12 18 98 83 167 168 169 180 173 152 158
333 338 342 343 339 333 336 345 351 341 311 294 298 262 297 111 124 168 187 200 223 218 184 265 78 202 208 193 202 219 213 190 144 222 202 141 285 155 60 201 183 186 166 156 160
332 336 342 340 335 324 310 323 7 326 309 303 296 278 277 278 93 199 215 195 157 201 184 8 246 237 209 234 247 250 149 83 52 210 328 161 239 286 155 244 181 160 165 160 161
333 336 341 333 330 317 314 346 337 316 299 306 275 246 244 219 222 206 178 208 156 184 214 186 235 236 240 256 236 55 141 127 251 196 1 86 301 267 201 222 256 246 173 176 168
333 339 335 322 321 325 356 355 341 342 36 281 223 243 190 183 258 218 196 204 318 206 223 226 252 240 235 243 154 152 215 145 175 168 222 168 239 207 249 261 246 248 231 199 170
331 341 331 291 289 323 339 339 332 325 18 192 206 176 192 161 118 183 175 208 252 254 64 250 262 250 242 239 136 163 69 143 155 178 140 211 236 254 199 244 249 232 229 221 180
326 335 325 311 297 328 331 334 342 45 281 200 148 188 121 217 255 173 184 204 265 260 225 236 241 178 221 319 129 137 92 49 56 94 237 196 235 235 185 214 226 221 232 233 184
320 310 299 292 314 314 315 341 37 85 313 336 228 241 200 248 133 162 183 174 173 28 354 332 290 267 130 78 67 114 99 72 320 249 231 173 213 253 230 202 218 224 204 210 186
309 299 295 287 287 299 331 46 55 331 10 302 355 332 173 155 213 173 137 194 273 123 304 257 328 151 253 148 166 186 156 145 211 197 98 77 245 258 153 228 216 221 198 199 183
305 306 299 165 225 235 29 44 224 84 329 352 344 15 354 65 104 67 51 23 346 116 221 244 268 327 269 226 141 232 199 153 106 20 104 210 304 292 11 355 183 190 175 186 190
329 318 295 182 198 195 72 241 245 110 25 38 42 21 24 4 48 66 352 38 348 1 171 270 287 268 286 311 253 149 184 109 21 149 159 147 236 263 297 108 150 163 177 180 192
338 329 136 207 206 204 171 239 284 157 75 85 335 357 1 76 44 64 307 307 23 339 57 28 109 289 13 32 229 329 298 71 131 145 151 142 239 225 228 191 168 170 174 180 188
350 340 130 192 129 199 212 199 229 61 39 22 39 39 21 61 74 285 277 270 15 28 12 310 132 312 257 287 251 177 189 145 131 273 187 177 260 177 226 148 152 148 170 177 192
336 277 246 253 223 256 277 263 171 69 59 44 18 8 25 68 98 232 239 290 6 47 58 326 357 13 347 346 6 41 345 355 88 85 217 145 262 348 332 38 69 34 37 194 190
334 343 332 279 269 157 294 313 113 150 103 107 339 356 47 62 28 114 338 338 29 51 36 41 119 143 188 236 226 332 5 6 121 112 223 213 205 269 219 38 75 49 60 202 210
257 260 354 296 318 285 158 274 47 138 70 52 28 41 6 67 81 350 322 335 342 11 20 84 271 208 206 331 32 57 29 24 25 293 165 248 176 215 41 56 65 52 73 111 164
278 344 307 294 321 327 83 245 156 123 112 67 95 0 41 54 159 218 167 315 253 352 28 16 290 327 36 14 53 52 34 24 16 359 45 85 68 36 71 43 2 358 27 49 163
311 280 294 305 350 2 310 253 166 131 203 134 149 108 54 307 346 21 276 347 46 52 353 68 42 22 257 331 76 42 349 14 49 25 36 71 357 94 43 60 62 54 75 80 160
Wind_Speed_850mb
29 28 25 23 20 18 15 13 12 11 10 10 11 12 15 19 21 28 30 16 25 11 5 13 17 22 18 21 25 11 8 10 19 23 8 9 9 23 39 67 48 11 65 69 68
29 30 29 28 26 23 20 16 14 12 12 11 12 12 13 18 23 35 12 19 26 21 18 17 22 15 10 10 9 13 8 27 20 26 13 31 33 42 45 37 44 65 58 74 78
25 26 28 28 29 29 28 24 20 17 14 13 11 11 12 14 18 8 4 20 30 24 19 24 23 13 20 18 9 10 5 11 27 42 28 11 34 28 48 25 69 79 74 85 73
22 20 23 24 26 27 26 26 25 22 19 15 12 9 10 9 4 4 6 8 25 27 23 25 25 6 9 11 20 10 13 8 21 24 23 9 28 22 19 47 74 87 89 83 76
21 19 20 23 25 25 26 27 24 20 23 20 13 9 8 9 15 7 12 4 25 26 25 31 26 11 6 2 14 9 6 21 19 14 11 14 10 20 39 41 75 80 80 78 71
21 22 20 20 20 23 25 28 27 22 20 22 14 10 8 7 6 4 11 12 22 29 29 40 16 7 19 14 11 20 29 18 17 22 15 16 10 9 36 65 74 77 69 67 60
22 22 21 19 20 21 23 26 29 24 21 19 12 10 15 19 11 1 10 14 15 24 36 45 27 13 17 7 11 18 18 12 18 17 7 21 10 21 45 58 59 65 61 62 55
22 23 23 23 21 20 23 27 32 23 18 13 10 16 11 9 14 16 13 18 13 19 28 32 18 23 16 35 9 6 6 7 4 12 2 9 6 12 34 50 46 56 61 61 64
21 24 26 25 23 19 21 27 33 22 15 12 12 16 14 6 18 20 18 23 9 15 27 23 17 16 7 10 7 6 3 7 1 2 8 8 9 4 34 27 48 50 50 74 72
20 24 27 26 22 16 19 26 24 20 14 13 14 14 11 8 12 7 26 25 15 11 16 21 14 5 7 9 11 9 8 15 9 8 2 6 3 7 23 29 47 55 40 74 69
20 23 25 24 18 11 10 20 21 8 29 23 34 28 28 15 13 9 12 18 29 9 7 10 7 11 15 14 11 9 15 20 9 7 1 6 5 8 10 23 36 53 39 66 72
21 23 23 21 14 7 12 13 11 17 24 38 38 35 25 16 1 8 15 9 15 8 5 11 9 19 14 17 15 19 19 15 12 4 8 6 10 9 5 9 9 11 53 65 67
22 24 22 17 10 9 17 21 29 36 11 33 17 23 17 16 12 17 21 11 7 5 6 13 18 21 17 19 19 5 17 25 2 6 9 7 8 9 5 9 11 15 14 62 83
22 22 20 11 7 12 18 32 41 33 9 13 4 8 19 8 7 25 24 13 1 17 12 12 32 25 16 22 10 7 11 28 30 18 7 3 5 8 23 20 9 25 18 30 72
23 20 18 7 12 12 28 25 26 9 9 10 5 10 16 11 5 22 22 23 15 10 3 18 13 8 13 20 17 11 16 15 32 12 5 11 3 9 16 26 30 29 37 24 66
25 18 12 10 12 17 26 34 21 11 5 8 12 11 8 11 5 29 18 20 12 8 9 17 20 11 14 10 27 41 31 26 5 2 5 12 8 8 14 44 30 21 37 29 69
26 19 15 13 5 21 24 27 11 4 13 17 3 7 13 6 8 15 10 4 5 8 9 17 11 10 14 28 13 27 19 5 4 4 6 11 6 11 14 11 34 37 47 49 56
23 22 22 13 7 10 18 10 5 8 11 10 16 20 13 15 5 12 11 4 8 6 2 4 16 4 5 18 23 15 11 12 10 7 3 3 8 10 6 39 73 75 64 62 59
19 23 25 3 4 2 4 8 10 2 7 14 19 12 12 12 13 11 7 7 4 5 6 4 10 10 5 8 25 11 5 17 14 5 6 5 14 19 2 11 27 44 65 72 68
21 28 18 11 10 7 8 10 7 5 5 11 8 8 16 9 9 11 14 4 8 6 14 2 7 8 12 5 8 18 12 8 3 12 8 8 1 18 21 5 14 29 52 71 75
21 17 12 11 18 6 4 11 11 5 13 4 5 6 9 6 8 6 7 7 9 13 14 6 5 14 8 5 14 1 3 6 7 9 9 9 12 24 36 22 30 44 59 69 81
12 6 8 13 9 5 5 10 15 5 23 13 14 9 4 8 6 2 4 7 18 11 6 6 6 6 14 16 18 11 16 12 9 14 4 6 10 12 15 22 29 24 41 65 73
18 14 14 16 5 7 14 11 9 5 7 6 9 5 10 6 7 4 7 14 10 11 4 8 7 8 20 15 17 12 10 6 2 7 6 8 9 6 3 15 40 23 5 37 55
8 6 12 12 15 4 9 9 5 9 6 7 4 14 8 8 7 2 9 7 14 13 25 13 4 10 9 14 8 13 22 18 5 5 5 10 6 9 17 4 19 35 4 7 31
5 7 7 8 14 10 4 4 4 8 7 10 10 11 4 6 6 4 6 11 15 17 13 8 5 8 11 8 15 24 24 31 13 9 10 7 10 8 9 10 12 26 17 18 7
6 4 10 27 24 15 4 7 10 4 7 3 8 9 10 7 9 4 2 1 8 8 8 9 3 9 6 12 15 23 38 23 18 23 13 23 15 10 13 18 16 14 23 27 14
6 12 8 11 12 10 6 9 14 18 3 5 14 7 8 5 7 10 7 2 4 4 9 5 6 7 3 8 5 14 14 19 11 20 3 8 3 11 11 22 22 23 25 17 18
Wind_Direction_850mb
10 13 12 10 14 18 13 1 348 342 325 308 307 301 281 268 262 263 255 235 208 194 156 201 205 198 220 260 252 228 62 118 185 176 218 266 128 106 132 131 135 152 142 147 153
24 30 33 32 32 31 25 15 356 342 330 318 308 307 295 275 269 260 252 225 201 188 191 182 191 189 242 260 235 191 127 187 208 192 210 175 130 124 135 141 122 127 141 150 153
30 33 34 36 40 40 36 28 14 356 341 326 315 312 304 293 294 283 217 206 204 196 176 185 204 275 253 257 244 189 203 149 187 234 219 225 139 142 159 158 148 147 156 157 160
25 26 26 29 30 28 25 21 19 11 357 344 333 313 299 283 221 64 45 210 192 198 201 202 212 229 243 212 233 125 47 71 149 202 183 111 129 137 169 161 164 159 162 163 164
17 12 13 17 16 13 11 7 360 356 2 350 336 316 295 267 243 78 355 212 189 202 204 197 208 204 244 125 62 79 71 85 83 127 148 103 61 133 144 155 164 162 162 164 164
11 9 5 2 358 356 1 5 3 354 347 348 334 317 285 286 111 74 30 13 218 208 204 203 196 187 287 252 160 155 115 113 70 53 56 109 147 101 165 157 159 163 166 164 161
6 3 359 350 345 347 350 353 355 349 348 347 337 316 277 227 94 240 286 342 324 216 210 202 205 264 327 60 56 126 102 84 24 9 77 100 289 161 147 165 162 170 166 158 169
356 358 353 349 343 333 338 340 343 339 349 351 347 330 261 98 235 229 262 270 338 197 206 203 225 272 265 122 75 44 106 116 37 6 269 150 171 146 170 173 167 161 167 169 175
346 348 348 348 342 327 330 336 337 326 323 324 311 329 296 229 243 256 246 245 287 190 195 229 279 250 198 97 51 33 350 19 219 77 320 64 153 139 186 216 160 169 154 158 164
338 342 344 346 341 324 329 340 339 314 299 324 286 317 338 280 70 118 176 214 211 197 256 260 236 158 69 91 193 154 153 229 210 169 12 18 98 83 167 168 169 180 173 152 158
333 338 342 343 339 333 336 345 351 341 311 294 298 262 297 111 124 168 187 200 223 218 184 265 78 202 208 193 202 219 213 190 144 222 202 141 285 155 60 201 183 186 166 156 160
332 336 342 340 335 324 310 323 7 326 309 303 296 278 277 278 93 199 215 195 157 201 184 8 246 237 209 234 247 250 149 83 52 210 328 161 239 286 155 244 181 160 165 160 161
333 336 341 333 330 317 314 346 337 316 299 306 275 246 244 219 222 206 178 208 156 184 214 186 235 236 240 256 236 55 141 127 251 196 1 86 301 267 201 222 256 246 173 176 168
333 339 335 322 321 325 356 355 341 342 36 281 223 243 190 183 258 218 196 204 318 206 223 226 252 240 235 243 154 152 215 145 175 168 222 168 239 207 249 261 246 248 231 199 170
331 341 331 291 289 323 339 339 332 325 18 192 206 176 192 161 118 183 175 208 252 254 64 250 262 250 242 239 136 163 69 143 155 178 140 211 236 254 199 244 249 232 229 221 180
326 335 325 311 297 328 331 334 342 45 281 200 148 188 121 217 255 173 184 204 265 260 225 236 241 178 221 319 129 137 92 49 56 94 237 196 235 235 185 214 226 221 232 233 184
320 310 299 292 314 314 315 341 37 85 313 336 228 241 200 248 133 162 183 174 173 28 354 332 290 267 130 78 67 114 99 72 320 249 231 173 213 253 230 202 218 224 204 210 186
309 299 295 287 287 299 331 46 55 331 10 302 355 332 173 155 213 173 137 194 273 123 304 257 328 151 253 148 166 186 156 145 211 197 98 77 245 258 153 228 216 221 198 199 183
305 306 299 165 225 235 29 44 224 84 329 352 344 15 354 65 104 67 51 23 346 116 221 244 268 327 269 226 141 232 199 153 106 20 104 210 304 292 11 355 183 190 175 186 190
329 318 295 182 198 195 72 241 245 110 25 38 42 21 24 4 48 66 352 38 348 1 171 270 287 268 286 311 253 149 184 109 21 149 159 147 236 263 297 108 150 163 177 180 192
338 329 136 207 206 204 171 239 284 157 75 85 335 357 1 76 44 64 307 307 23 339 57 28 109 289 13 32 229 329 298 71 131 145 151 142 239 225 228 191 168 170 174 180 188
350 340 130 192 129 199 212 199 229 61 39 22 39 39 21 61 74 285 277 270 15 28 12 310 132 312 257 287 251 177 189 145 131 273 187 177 260 177 226 148 152 148 170 177 192
336 277 246 253 223 256 277 263 171 69 59 44 18 8 25 68 98 232 239 290 6 47 58 326 357 13 347 346 6 41 345 355 88 85 217 145 262 348 332 38 69 34 37 194 190
334 343 332 279 269 157 294 313 113 150 103 107 339 356 47 62 28 114 338 338 29 51 36 41 119 143 188 236 226 332 5 6 121 112 223 213 205 269 219 38 75 49 60 202 210
257 260 354 296 318 285 158 274 47 138 70 52 28 41 6 67 81 350 322 335 342 11 20 84 271 208 206 331 32 57 29 24 25 293 165 248 176 215 41 56 65 52 73 111 164
278 344 307 294 321 327 83 245 156 123 112 67 95 0 41 54 159 218 167 315 253 352 28 16 290 327 36 14 53 52 34 24 16 359 45 85 68 36 71 43 2 358 27 49 163
311 280 294 305 350 2 310 253 166 131 203 134 149 108 54 307 346 21 276 347 46 52 353 68 42 22 257 331 76 42 349 14 49 25 36 71 357 94 43 60 62 54 75 80 160